Regional Weather Roundup
Issued by NWS

Home | Current Version | Previous Version | Graphics & Text | Print | Product List | Glossary On
Versions: 1 2 3 4 5 6 7 8 9 10 11 12 13 14 15 16 17 18 19 20 21 22 23 24 25 26 27 28 29 30 31 32 33 34 35 36 37 38 39 40 41 42 43 44 45 46 47 48 49 50
000
ASUS45 KTFX 241910
RWRMT
MONTANA REGIONAL WEATHER ROUNDUP
NATIONAL WEATHER SERVICE GREAT FALLS MT
1200 PM MST SAT FEB 24 2018

NOTE: "FAIR" INDICATES FEW OR NO CLOUDS BELOW 12000 FEET WITH NO
SIGNIFICANT WEATHER AND/OR OBSTRUCTIONS TO VISIBILITY.

MTZ001>007-043-242000-
WEST OF THE DIVIDE

CITY           SKY/WX    TMP DP  RH WIND       PRES   REMARKS
KALISPELL      CLOUDY    22  18  85 SW3       29.83F
MISSOULA       CLOUDY    21  13  71 W3        29.82F
BUTTE          CLOUDY    25   6  44 CALM      29.72F
MULLAN PASS    LGT SNOW  16  13  88 VRB3      29.65R VSB 3/4
ANACONDA         N/A     28  10  47 MISG      29.72F
DEER LODGE       N/A     27  12  54 SE9       29.74F WCI  17
HAMILTON         N/A     30  12  47 MISG      29.77S
RONAN            N/A     23  14  68 CALM      29.83S
$$

MTZ008-052>055-242000-
SOUTHWEST MONTANA

CITY           SKY/WX    TMP DP  RH WIND       PRES   REMARKS
BOZEMAN        FAIR      28   9  44 W8        29.77F WCI  20
DILLON         FAIR      20   9  62 S10       29.75F WCI   9
ENNIS          PTSUNNY   23   9  54 S21       29.80F WCI   8
W YELLOWSTONE  FAIR      12   5  73 SW16G23   29.79F HAZE    WCI  -4
THREE FORKS      N/A     28  14  55 SW16      29.78F WCI  16
$$

MTZ009-010-012-014-046-048-049-054-242000-
EAST SLOPES AND CENTRAL MONTANA

CITY           SKY/WX    TMP DP  RH WIND       PRES   REMARKS
CUT BANK       FAIR      24  15  68 W10       29.66R WCI  14
GREAT FALLS    FAIR      25  13  60 SW17      29.69S WCI  12
MALMSTROM AFB  FAIR      26  15  63 SW20      29.70F WCI  12
HELENA         CLOUDY    29  14  53 CALM      29.75F
AUGUSTA          N/A     26  12  55 NE6       29.64S WCI  19
BOWMANS CRNR   FAIR      22  14  71 S15       29.64F WCI   9
CHOTEAU          N/A     27   9  46 SE3       29.68S
FAIRFIELD      FAIR      23  12  63 S12       29.66F WCI  12
POWER          FAIR      22  13  70 SW17      29.67S WCI   8
RAYNESFORD     FAIR      27  11  51 W18       29.68S WCI  14
ULM            PTSUNNY   26  15  63 SW10      29.71S WCI  16
WHITE SULPHUR    N/A     21  10  63 SW13G22   29.69  WCI   9
$$

MTZ011-013-016-021-045-047-050-051-242000-
NORTH CENTRAL MONTANA

CITY           SKY/WX    TMP DP  RH WIND       PRES   REMARKS
HAVRE          FAIR      18  11  74 SW24      29.68S WCI   0
LEWISTOWN      FAIR      23  15  71 W7        29.65F WCI  15
N BAR RANCH    FAIR      25   7  46 W16G28    29.65F WCI  12
CHINOOK          N/A     21  12  68 W17       29.68S WCI   7
GEYSER         FAIR      26  13  58 W24       29.65S WCI  11
STANFORD       FAIR      26  13  57 NW13      29.65S WCI  15
WINIFRED       FAIR      24  15  66 W13       29.64F WCI  13
$$

MTZ017>020-022>027-061-062-242000-
NORTHEAST MONTANA

CITY           SKY/WX    TMP DP  RH WIND       PRES   REMARKS
GLASGOW        PTSUNNY   20  11  68 W8        29.65F WCI  10
GLENDIVE       FAIR       9   2  73 S10       29.71F WCI  -5
JORDAN           N/A     22  13  68 W13       29.68F WCI  10
MALTA          PTSUNNY   23  14  68 W16       29.65S WCI  10
SIDNEY         FAIR      15   6  67 S10       29.72F WCI   2
WOLF POINT     FAIR      13   3  64 W3        29.68F
PLENTYWOOD       N/A     19   9  63 SW13      29.62F WCI   7
POPLAR           N/A     10   1  67 CALM      29.68F
$$

MTZ028>42-056>058-242000-
SOUTHCENTRAL AND SOUTHEAST MONTANA

CITY           SKY/WX    TMP DP  RH WIND       PRES   REMARKS
BAKER          FAIR      18   9  68 W18       29.69F WCI   2
BILLINGS       FAIR      25  10  53 SW15      29.72F WCI  13
LIVINGSTON     PTSUNNY   26  10  50 SW28G44   29.71F WCI  10
MILES CITY     PTSUNNY   11   4  73 SW8       29.74F WCI  -1
BIG TIMBER     SUNNY     27  12  54 W31G38    29.71F WCI  10
FORSYTH          N/A     21   9  58 CALM      29.73F
HARLOWTON      FAIR      24  14  67 W30       29.66F WCI   6
LAUREL           N/A     27  10  50 SW13      29.74F WCI  16
$$

REGIONAL REPORTS...DAKOTAS

CITY           SKY/WX    TMP DP  RH WIND       PRES   REMARKS
WILLISTON      FAIR      15   3  59 SW8       29.70F WCI   4
MINOT          CLOUDY    18   9  68 SW13      29.70F WCI   5
DICKINSON      FAIR      20   8  60 W12       29.66F WCI   8
BEACH          FAIR      16   7  67 W15G21    29.71F WCI   1
CROSBY         FAIR      14   5  67 SW17      29.65F WCI  -3
TIOGA          FAIR      14   7  73 W10       29.67F WCI   1
WATFORD CITY   FAIR      18   7  62 SW12      29.69F WCI   5
BISMARCK       LGT SNOW  19  15  84 S13       29.76F FOG     WCI   6
GRAND FORKS    PTSUNNY   12   7  80 S22       29.92F WCI  -7
FARGO          PTSUNNY   14   6  70 S12       29.94F WCI   0
BUFFALO SD       N/A     21  10  62 W15       29.62F WCI   8
RAPID CITY     FAIR      26  14  60 N28G36    29.68F WCI  10
$$

REGIONAL REPORTS...WYOMING/IDAHO/WASHINGTON

CITY           SKY/WX    TMP DP  RH WIND       PRES   REMARKS
GILLETTE       CLOUDY    22   8  55 SW12      29.72F WCI  10
SHERIDAN       CLOUDY    25   9  50 S3        29.73F
BUFFALO WY     CLOUDY    25   7  46 S8        29.70F WCI  16
CODY           FAIR      26   5  40 W18G28    29.73F WCI  13
YELLOWSTONE LA   N/A      9   0  67 W14G21    29.77F WCI  -7
IDAHO FALLS    LGT SNOW  21  17  84 S17       29.95F FOG     WCI   7
SALMON         CLOUDY    30  13  49 S12G20    29.82F WCI  20
BOISE          LGT SNOW  28  25  88 SE15      29.95F VSB 3/4 WCI  16
SPOKANE        FLURRIES  25  24  96 NE9       29.84R WCI  15
$$

REGIONAL REPORTS...ALBERTA

CITY           SKY/WX    TMP DP  RH WIND       PRES   REMARKS
CALGARY        PTSUNNY   28   1  31 W16G23    29.61S WCI  17
CARDSTON         N/A     30   9  40 W13G18      N/A  WCI  20
EDMONTON       CLOUDY    27  16  63 NW13      29.59R WCI  16
FORT MCMURRAY  FLURRIES  16   9  73 NW10      29.63S WCI   3
HIGH LEVEL     PTSUNNY   16  10  79 SE5       29.67F
LETHBRIDGE     PTSUNNY   25  14  63 W23       29.66F WCI  10
LLOYDMINSTER   MOSUNNY   25  16  68 W15       29.50R WCI  12
MEDICINE HAT   CLOUDY    25  19  80 W14       29.65R WCI  13
MILK RIVER       N/A     25  14  63 NW20        N/A  WCI  11
PEACE RIVER    FLURRIES  18  12  79 SE6       29.65F WCI   9
PINCHER CREEK  PTSUNNY   23   9  54 W18       29.66S WCI   9
WATERTON GATE    N/A     27   9  46 SW21G26     N/A  WCI  13
$$

REGIONAL REPORTS...SASKATCHEWAN

CITY           SKY/WX    TMP DP  RH WIND       PRES   REMARKS
CORONACH         N/A     18  12  79 W17G23      N/A  WCI   2
CYPRESS HILLS    N/A     19  14  79 NW12G18     N/A  WCI   7
ESTEVAN        MOSUNNY   18   7  62 SW13G20   29.63F WCI   4
MOOSE JAW        N/A     25  19  80 W14         N/A  WCI  13
PRINCE ALBERT  PTSUNNY   21  10  63 S5        29.50F
REGINA         PTSUNNY   19  12  73 S5        29.56F
ROCKGLEN         N/A     16  10  79 W18         N/A  WCI  -1
SASKATOON      PTSUNNY   25  14  63 SW7       29.53F WCI  17
VAL MARIE        N/A     19  14  79 W20         N/A  WCI   4
$$



USA.gov is the U.S. government's official web portal to all federal, state and local government web resources and services.